Tracking 35275 objects as of 9-Sep-2026
HD Live streaming from Space Station
objects crossing your sky now

COSMOS 1813 DEB


COSMOS 1813 DEB is no longer on orbit


NORAD ID: 17518
Int'l Code: 1987-004BG
Launch date: January 15, 1987
Source: Commonwealth of Independent States (former USSR) (CIS)
Launch site: PLESETSK MISSILE AND SPACE COMPLEX (PKMTR)
Decay date: 1987-04-27

Note: This is SATELLITE DEBRIS
Your satellite tracking list
Your tracking list is empty




NASA's NSSDC Master Catalog

Two Line Element Set (TLE):
1 17518U 87004 BG 87117.20789588  .02517993 +22538-5 +15165-2 0  9993
2 17518 072.7938 039.0154 0012412 268.9466 091.0348 16.18003133013503
Source of the keplerian elements: AFSPC